Location: Baumgarten
(49.0970°N, 12.7493°E)
Time: 08:03:45
(UTC+00:00)

Cosmos 923 Rocket - Pass Details

Date: 05 July 2020
Orbit: 757 x 786 km, 74.0° (Epoch: 04 August)

Event Time Altitude Azimuth Distance (km) Brightness Sun altitude
Exits shadow 21:52:19 17° 202° (SSW) 1,873 5.6 -16.0°
Maximum altitude 21:56:26 90° 281° (W) 779 4.0 -16.2°
Drops below altitude 10° 22:01:46 10° 23° (NNE) 2,336 7.2 -16.5°
Sets 22:04:10 0° 24° (NNE) 3,273 8.1 -16.6°
